Change the Weather History Date:

Monday, August 12, 2013

  Actual Average Record
Temperature  
Mean Temperature 75 °F 75 °F  
Max Temperature 86 °F 88 °F 102 °F (1994)
Min Temperature 63 °F 63 °F 53 °F (1941)
Degree Days  
Heating Degree Days 0 0  
Month to date heating degree days 0 0  
Since 1 June heating degree days 0 13  
Since 1 July heating degree days 0 0  
Cooling Degree Days 10 10  
Month to date cooling degree days 101 120  
Year to date cooling degree days 1105 684  
Since 1 June cooling degree days 776 560  
Growing Degree Days 24 (Base 50)    
Moisture  
Dew Point 57 °F    
Average Humidity 61    
Maximum Humidity 84    
Minimum Humidity 37    
Precipitation  
Precipitation 0.00 in 0.00 in 0.38 in (1972)
Month to date precipitation 0.00 0.02  
Year to date precipitation 2.61 12.59  
Since 1 July precipitation 0.01 0.04  
Sea Level Pressure  
Sea Level Pressure 29.90 in    
Wind  
Wind Speed 6 mph (SE)    
Max Wind Speed 13 mph    
Max Gust Speed 18 mph    
Visibility 9 miles    
Events      
T = Trace of Precipitation, MM = Missing Value Source: NWS Daily Summary

Daily Weather History Graph

Daily Weather History Graph

Search for Another Location

Airport or City:

Trip Planner

Search our weather history database for the weather conditions in past years. The results will help you decide how hot, cold, wet, or windy it might be!

Date:

Astronomy

Aug. 12, 2013 Rise Set
Actual Time 6:12 AM PDT 7:43 PM PDT
Civil Twilight 5:46 AM PDT 8:10 PM PDT
Nautical Twilight 5:14 AM PDT 8:42 PM PDT
Astronomical Twilight 4:40 AM PDT 9:15 PM PDT
Moon 11:49 AM PDT (8/12) 10:59 PM PDT (8/12)
Length of Visible Light 14h 24m
Length of Day
13h 30m
Waxing Crescent, 32% of the Moon is Illuminated
Aug 12
Waxing Crescent
Aug 14
First Quarter
Aug 20
Full
Aug 28
Last Quarter
Sep 5
New

Hourly Weather History & Observations

Time (PDT) Temp. Heat Index Dew Point Humidity Pressure Visibility Wind Dir Wind Speed Gust Speed Precip Events Conditions
12:53 AM 64.9 °F - 57.0 °F 75% 29.90 in 10.0 mi ESE 5.8 mph - N/A   Clear
1:53 AM 64.9 °F - 57.0 °F 75% 29.89 in 10.0 mi East 3.5 mph - N/A   Clear
2:53 AM 64.0 °F - 57.0 °F 78% 29.88 in 10.0 mi SE 3.5 mph - N/A   Clear
3:53 AM 64.0 °F - 57.0 °F 78% 29.89 in 10.0 mi East 4.6 mph - N/A   Clear
4:37 AM 62.6 °F - 57.2 °F 82% 29.93 in 10.0 mi East 3.5 mph - N/A   Partly Cloudy
4:51 AM 62.6 °F - 57.2 °F 82% 29.93 in 10.0 mi Variable 3.5 mph - N/A   Mostly Cloudy
4:53 AM 63.0 °F - 57.0 °F 81% 29.89 in 10.0 mi Calm Calm - N/A   Mostly Cloudy
5:53 AM 63.0 °F - 57.9 °F 84% 29.91 in 3.0 mi Calm Calm - N/A   Haze
6:53 AM 63.0 °F - 57.0 °F 81% 29.93 in 4.0 mi ESE 4.6 mph - N/A   Haze
7:53 AM 64.0 °F - 57.0 °F 78% 29.93 in 6.0 mi Variable 3.5 mph - N/A   Haze
8:53 AM 66.0 °F - 57.0 °F 73% 29.94 in 6.0 mi South 3.5 mph - N/A   Haze
9:53 AM 71.1 °F - 55.9 °F 59% 29.95 in 8.0 mi Calm Calm - N/A   Clear
10:53 AM 75.0 °F - 57.0 °F 53% 29.94 in 10.0 mi Variable 3.5 mph - N/A   Clear
11:53 AM 80.1 °F 80.2 °F 55.9 °F 43% 29.93 in 10.0 mi Variable 4.6 mph - N/A   Clear
12:53 PM 82.0 °F 81.6 °F 55.9 °F 41% 29.91 in 10.0 mi SSE 8.1 mph - N/A   Clear
1:53 PM 84.9 °F 83.9 °F 57.0 °F 38% 29.88 in 10.0 mi Variable 6.9 mph - N/A   Clear
2:53 PM 86.0 °F 85.0 °F 57.9 °F 38% 29.87 in 10.0 mi South 11.5 mph - N/A   Clear
3:53 PM 84.0 °F 83.5 °F 57.9 °F 41% 29.86 in 10.0 mi South 11.5 mph - N/A   Clear
4:53 PM 84.0 °F 83.3 °F 57.0 °F 40% 29.85 in 10.0 mi South 6.9 mph - N/A   Clear
5:53 PM 82.9 °F 82.1 °F 55.9 °F 39% 29.85 in 10.0 mi South 8.1 mph - N/A   Clear
6:53 PM 77.0 °F - 57.0 °F 50% 29.86 in 10.0 mi South 9.2 mph - N/A   Clear
7:53 PM 72.0 °F - 57.9 °F 61% 29.87 in 10.0 mi SE 10.4 mph 18.4 mph N/A   Clear
8:53 PM 70.0 °F - 57.9 °F 65% 29.89 in 10.0 mi ESE 8.1 mph - N/A   Clear
9:53 PM 68.0 °F - 57.9 °F 70% 29.91 in 10.0 mi ESE 5.8 mph - N/A   Clear
10:53 PM 66.9 °F - 57.9 °F 73% 29.91 in 10.0 mi East 5.8 mph - N/A   Clear
11:53 PM 66.0 °F - 57.9 °F 75% 29.91 in 10.0 mi SE 5.8 mph - N/A   Clear